Location: Brachbach
(49.1847°N, 9.7240°E)
Time: 21:35:26
(UTC+00:00)

Cosmos 2219 Rocket - Pass Details

Date: 13 August 2024
Orbit: 826 x 846 km, 71.0° (Epoch: 09 September)

Event Time Altitude Azimuth Distance (km) Brightness Sun altitude
Exits shadow 02:44:20 - 277° (W) 2,921 4.6 -12.7°
Reaches altitude 10° 02:46:09 10° 290° (WNW) 2,475 4.3 -12.5°
Maximum altitude 02:49:33 16° 327° (NNW) 2,089 4.3 -12.1°
Drops below altitude 10° 02:52:57 10° 4° (N) 2,482 5.3 -11.6°
Sets 02:56:29 0° 26° (NNE) 3,420 6.6 -11.2°
